Location: Unspecified
(0.0000°N, 0.0000°E)
Time: 12:50:58
(UTC+00:00)

JUGNU - Pass Details

Date: 21 February 2020
Orbit: 836 x 864 km, 20.0° (Epoch: 01 April)

Event Time Altitude Azimuth Distance (km) Brightness Sun altitude
Rises 19:45:52 0° 291° (WNW) 3,369 ? -22.6°
Reaches altitude 10° 19:48:25 10° 291° (WNW) 2,434 ? -23.3°
Maximum altitude 19:54:16 90° 349° (N) 834 ? -24.7°
Enters shadow 19:55:18 62° 111° (ESE) 928 ? -25.0°
